Flag for Niger Weather past 2 weeks in Niamey, Niger

Now
84 °F

Duststorm.


Feels Like: 81 °F
Forecast: 78 / 108 °F
Wind: 1 mph from North

Location: Niamey-Aero

Current Time: Apr 27, 2015 at 9:07:42 AM

Latest Report: Apr 27, 2015 at 8:00 AM


Visibility: 2 mi

Pressure: 29.89 "Hg

Humidity: 10%

Dew point: 23 °F

Location of NiameyLocation

Historic Weather in Niamey — Graph

°F

Niamey temperature yesterday

Maximum temperature yesterday: 106 °F (at 2:00 PM)
Minimum temperature yesterday: 82 °F (at 6:00 AM)
Average temperature yesterday: 95 °F

Past Weeks' High & Low Weather Summary

 TemperatureHumidityPressure
High108 °F (Apr 22, 3:00 PM)19% (Apr 26, 11:00 AM)30.04 "Hg (Apr 26, 11:00 AM)
Low73 °F (Apr 15, 6:00 AM)3% (Apr 14, 2:00 PM)29.77 "Hg (Apr 19, 4:00 PM)
Average92 °F7%29.87 "Hg
* Reported Apr 12 8:00 AM — Apr 27 8:00 AM, Niamey, Weather by CustomWeather, © 2015

Note: Actual official high and low records may vary slightly from our data, if they occured in-between our weather recording intervals... More about our weather records

Advertising

Niamey weather history for previous 24 hours

 ConditionsComfort  
Time TempWeatherWind HumidityBarometerVisibility
8:00 AM
Mon, Apr 27
84 °FDuststorm.1 mph10%29.89 "Hg2 mi
7:00 AM79 °FDuststorm.No wind17%29.86 "Hg2 mi
6:00 AM81 °FDuststorm.2 mph12%29.83 "Hg2 mi
5:00 AM82 °FDuststorm.3 mph12%29.83 "Hg2 mi
4:00 AM84 °FDuststorm.No wind11%29.83 "Hg2 mi
3:00 AM84 °FDuststorm.No wind11%29.83 "Hg2 mi
2:00 AM86 °FDuststorm.2 mph8%29.83 "Hg2 mi
1:00 AM88 °FDuststorm.5 mph8%29.86 "Hg2 mi
12:00 AM90 °FDuststorm.5 mph8%29.86 "Hg2 mi
11:00 PM
Sun, Apr 26
91 °FDuststorm.6 mph7%29.86 "Hg2 mi
10:00 PM93 °FDuststorm.6 mph6%29.86 "Hg2 mi
9:00 PM95 °FDuststorm.5 mph6%29.83 "Hg2 mi
8:00 PM97 °FDuststorm.5 mph5%29.83 "Hg2 mi
7:00 PM102 °FDuststorm.10 mph4%29.80 "Hg3 mi
5:00 PM106 °FDuststorm.8 mph5%29.77 "Hg2 mi
4:00 PM106 °FDuststorm.10 mph6%29.80 "Hg2 mi
3:00 PM106 °FDuststorm.12 mph7%29.80 "Hg2 mi
2:00 PM106 °FDuststorm.6 mph10%29.83 "Hg2 mi
1:00 PM102 °FDuststorm.10 mph12%29.86 "Hg2 mi
12:00 PM100 °FDuststorm.8 mph16%29.89 "Hg2 mi
11:00 AM99 °FDuststorm.9 mph19%29.89 "Hg2 mi
10:00 AM97 °FDuststorm.7 mph18%29.92 "Hg2 mi
9:00 AM93 °FDuststorm.8 mph16%29.92 "Hg2 mi
Weather by CustomWeather, © 2015

See weather overviewHow to use our weather pages